EW2235 Weather Reports


Display with metric or nautical units.
time (UTC)temp
F
wind
direction
speed
MPH
gust
MPH
rain 1hr
in
rain 24hr
in
rain mn
in
humidity
%
barometer
mb
20260831191323 73 356 1.0 8.0 0.00 0.00 0.00 51 1010.3
20260831190826 74 39 0.0 0.0 0.00 0.00 0.00 53 1010.3
20260831190332 73 133 0.0 0.0 0.00 0.00 0.00 54 1010.4
20260831185814 71 46 0.0 0.0 0.00 0.00 0.00 56 1010.6
20260831185314 71 38 0.0 5.0 0.00 0.00 0.00 57 1010.5
20260831184904 70 319 0.0 7.0 0.00 0.00 0.00 55 1010.6
20260831184325 72 351 1.0 7.0 0.00 0.00 0.00 56 1010.6
20260831183827 71 49 0.0 5.0 0.00 0.00 0.00 57 1010.6
20260831183333 70 358 1.0 5.0 0.00 0.00 0.00 56 1010.6
20260831182813 70 11 0.0 0.0 0.00 0.00 0.00 57 1010.8
20260831182312 70 318 0.0 1.0 0.00 0.00 0.00 57 1010.8
20260831181821 70 335 0.0 4.0 0.00 0.00 0.00 58 1010.9
20260831181322 70 342 0.0 0.0 0.00 0.00 0.00 59 1010.9
20260831180823 69 56 0.0 6.0 0.00 0.00 0.00 61 1010.9
20260831180330 68 195 0.0 6.0 0.00 0.00 0.00 61 1011.0
20260831175832 69 333 0.0 2.0 0.00 0.00 0.00 60 1011.1
20260831175312 69 117 0.0 3.0 0.00 0.00 0.00 60 1011.1
20260831174821 69 106 0.0 1.0 0.00 0.00 0.00 60 1011.2
20260831174321 68 203 0.0 1.0 0.00 0.00 0.00 62 1011.2
20260831173831 68 4 0.0 1.0 0.00 0.00 0.00 62 1011.2
20260831173329 68 27 0.0 1.0 0.00 0.00 0.00 62 1011.2
20260831172831 67 244 0.0 1.0 0.00 0.00 0.00 64 1011.2
20260831172328 67 310 0.0 1.0 0.00 0.00 0.00 64 1011.2
20260831171831 66 344 0.0 6.0 0.00 0.00 0.00 64 1011.3
20260831171337 67 98 0.0 6.0 0.00 0.00 0.00 65 1011.4
20260831170819 66 274 0.0 1.0 0.00 0.00 0.00 67 1011.4
20260831170318 66 345 0.0 1.0 0.00 0.00 0.00 68 1011.4
20260831165820 66 355 0.0 2.0 0.00 0.00 0.00 68 1011.5
20260831165326 65 95 0.0 2.0 0.00 0.00 0.00 70 1011.5
20260831164830 64 309 0.0 1.0 0.00 0.00 0.00 71 1011.6
20260831164344 64 330 0.0 0.0 0.00 0.00 0.00 72 1011.6
20260831163855 64 124 0.0 0.0 0.00 0.00 0.00 73 1011.6
20260831163334 63 345 0.0 0.0 0.00 0.00 0.00 74 1011.6
20260831162843 63 349 0.0 0.0 0.00 0.00 0.00 75 1011.6
20260831162342 62 328 0.0 1.0 0.00 0.00 0.00 75 1011.6
20260831161850 62 320 0.0 3.0 0.00 0.00 0.00 76 1011.7
20260831161336 61 321 0.0 3.0 0.00 0.00 0.00 77 1011.8
20260831160838 61 342 0.0 0.0 0.00 0.00 0.00 78 1011.8
20260831160323 61 332 0.0 2.0 0.00 0.00 0.00 77 1011.8
20260831155826 60 166 0.0 3.0 0.00 0.00 0.00 79 1011.9
20260831155331 60 350 1.0 3.0 0.00 0.00 0.00 80 1011.9
20260831154814 60 338 1.0 3.0 0.00 0.00 0.00 81 1011.9
20260831154313 59 347 0.0 3.0 0.00 0.00 0.00 82 1011.8
20260831153823 59 333 1.0 3.0 0.00 0.00 0.00 82 1011.8
20260831153322 59 340 0.0 4.0 0.00 0.00 0.00 82 1011.8
20260831152825 59 349 1.0 5.0 0.00 0.00 0.00 83 1011.9
20260831152331 58 343 0.0 5.0 0.00 0.00 0.00 83 1011.9
20260831151901 58 354 1.0 5.0 0.00 0.00 0.00 83 1012.0
20260831151336 58 39 0.0 3.0 0.00 0.00 0.00 84 1012.0
20260831150845 58 322 0.0 2.0 0.00 0.00 0.00 85 1012.0
20260831150352 57 352 0.0 2.0 0.00 0.00 0.00 85 1012.1
20260831145834 57 6 0.0 2.0 0.00 0.00 0.00 85 1012.1
20260831145339 57 333 0.0 6.0 0.00 0.00 0.00 86 1012.1
20260831144848 57 352 1.0 6.0 0.00 0.00 0.00 86 1012.1
20260831144343 56 349 0.0 3.0 0.00 0.00 0.00 86 1012.1
20260831143830 56 330 0.0 3.0 0.00 0.00 0.00 87 1012.0
20260831143314 56 317 0.0 1.0 0.00 0.00 0.00 87 1012.0
20260831142816 56 351 0.0 2.0 0.00 0.00 0.00 87 1012.1
20260831142321 56 345 0.0 2.0 0.00 0.00 0.00 87 1012.0
20260831141824 56 328 0.0 0.0 0.00 0.00 0.00 87 1012.0
20260831141338 56 342 0.0 0.0 0.00 0.00 0.00 87 1012.0
20260831140923 56 339 0.0 1.0 0.00 0.00 0.00 87 1012.1
20260831140318 56 326 0.0 0.0 0.00 0.00 0.00 87 1012.1
20260831135819 55 324 0.0 1.0 0.00 0.00 0.00 87 1012.2
20260831135318 56 345 0.0 1.0 0.00 0.00 0.00 87 1012.1
20260831134827 56 334 0.0 1.0 0.00 0.00 0.00 87 1012.1
20260831134312 56 356 0.0 2.0 0.00 0.00 0.00 87 1012.1
20260831133814 56 330 0.0 2.0 0.00 0.00 0.00 87 1012.1
20260831133320 56 15 0.0 2.0 0.00 0.00 0.00 87 1012.1
20260831132823 56 337 0.0 1.0 0.00 0.00 0.00 87 1012.1
20260831132329 56 351 0.0 3.0 0.00 0.00 0.00 87 1012.2
20260831131832 56 330 0.0 3.0 0.00 0.00 0.00 87 1012.2
20260831130827 56 340 0.0 1.0 0.00 0.00 0.00 86 1012.3
20260831130327 56 326 0.0 1.0 0.00 0.00 0.00 86 1012.3
20260831125829 56 340 0.0 0.0 0.00 0.00 0.00 86 1012.4
20260831125334 56 336 0.0 1.0 0.00 0.00 0.00 86 1012.5
20260831124817 56 326 0.0 2.0 0.00 0.00 0.00 86 1012.4
20260831124316 56 316 0.0 2.0 0.00 0.00 0.00 86 1012.4
20260831123826 56 333 0.0 0.0 0.00 0.00 0.00 85 1012.4
20260831123325 56 323 0.0 0.0 0.00 0.00 0.00 85 1012.4
20260831122814 57 340 0.0 1.0 0.00 0.00 0.00 85 1012.5
20260831122339 57 332 0.0 0.0 0.00 0.00 0.00 85 1012.5
20260831121819 57 331 0.0 0.0 0.00 0.00 0.00 85 1012.6
20260831121321 57 309 0.0 0.0 0.00 0.00 0.00 85 1012.5
20260831120829 57 329 0.0 0.0 0.00 0.00 0.00 85 1012.6
20260831120327 57 353 0.0 0.0 0.00 0.00 0.00 85 1012.6
20260831115816 57 340 0.0 0.0 0.00 0.00 0.00 85 1012.7
20260831115314 57 340 0.0 0.0 0.00 0.00 0.00 85 1012.7
20260831114822 57 302 0.0 0.0 0.00 0.00 0.00 84 1012.7
20260831114350 57 302 0.0 0.0 0.00 0.00 0.00 84 1012.8
20260831113840 57 337 0.0 0.0 0.00 0.00 0.00 84 1012.8
20260831113337 57 330 0.0 1.0 0.00 0.00 0.00 84 1012.8
20260831112846 57 335 0.0 3.0 0.00 0.00 0.00 84 1012.8
20260831112352 57 352 0.0 3.0 0.00 0.00 0.00 84 1012.8
20260831111834 57 325 0.0 0.0 0.00 0.00 0.00 84 1012.9
20260831111338 57 332 0.0 3.0 0.00 0.00 0.00 84 1012.9
20260831110848 57 319 0.0 3.0 0.00 0.00 0.00 85 1012.9
20260831110354 57 338 0.0 2.0 0.00 0.00 0.00 85 1013.0
20260831105816 57 32 0.0 0.0 0.00 0.00 0.00 85 1013.0
20260831105322 57 345 0.0 0.0 0.00 0.00 0.00 85 1013.0
20260831104833 57 345 0.0 0.0 0.00 0.00 0.00 84 1013.0
20260831104331 57 345 0.0 0.0 0.00 0.00 0.00 84 1013.0
20260831103820 58 343 0.0 0.0 0.00 0.00 0.00 84 1013.0
20260831103320 58 327 0.0 0.0 0.00 0.00 0.00 84 1013.0
20260831102829 58 318 0.0 0.0 0.00 0.00 0.00 84 1013.1
20260831102327 58 326 0.0 0.0 0.00 0.00 0.00 84 1013.1
20260831101837 58 328 0.0 0.0 0.00 0.00 0.00 84 1013.1
20260831101317 58 328 0.0 0.0 0.00 0.00 0.00 84 1013.2
20260831100826 58 5 0.0 0.0 0.00 0.00 0.00 83 1013.2
20260831100331 58 338 0.0 1.0 0.00 0.00 0.00 83 1013.3
20260831095813 58 316 0.0 1.0 0.00 0.00 0.00 83 1013.3
20260831095318 58 354 0.0 0.0 0.00 0.00 0.00 83 1013.4
20260831094822 58 345 0.0 1.0 0.00 0.00 0.00 83 1013.4
20260831094319 58 348 0.0 0.0 0.00 0.00 0.00 83 1013.5
20260831093827 59 314 0.0 0.0 0.00 0.00 0.00 83 1013.5
20260831093333 59 307 0.0 0.0 0.00 0.00 0.00 83 1013.6
20260831092836 59 349 0.0 2.0 0.00 0.00 0.00 83 1013.6
20260831092342 59 288 0.0 1.0 0.00 0.00 0.00 83 1013.7
20260831091852 59 16 0.0 1.0 0.00 0.00 0.00 82 1013.8
20260831091358 59 335 0.0 3.0 0.00 0.00 0.00 82 1013.8
20260831090840 59 354 0.0 2.0 0.00 0.00 0.00 82 1013.8
20260831090347 59 343 0.0 2.0 0.00 0.00 0.00 83 1013.9
20260831085853 59 312 0.0 1.0 0.00 0.00 0.00 83 1013.9
20260831085333 59 3 0.0 1.0 0.00 0.00 0.00 82 1013.9
20260831084842 59 315 0.0 2.0 0.00 0.00 0.00 82 1014.0
20260831084321 59 327 0.0 2.0 0.00 0.00 0.00 82 1014.0
20260831083830 59 326 0.0 2.0 0.00 0.00 0.00 82 1014.1
20260831083328 59 327 0.0 0.0 0.00 0.00 0.00 82 1014.2
20260831082831 60 340 0.0 2.0 0.00 0.00 0.00 82 1014.2
20260831082338 59 324 0.0 1.0 0.00 0.00 0.00 82 1014.3
20260831081821 59 351 0.0 0.0 0.00 0.00 0.00 81 1014.4
20260831081320 60 352 0.0 0.0 0.00 0.00 0.00 82 1014.4
20260831080831 60 321 0.0 0.0 0.00 0.00 0.00 81 1014.5
20260831080331 60 321 0.0 0.0 0.00 0.00 0.00 80 1014.6
20260831075813 60 321 0.0 0.0 0.00 0.00 0.00 80 1014.6
20260831075318 60 8 0.0 0.0 0.00 0.00 0.00 80 1014.6
20260831074821 60 8 0.0 0.0 0.00 0.00 0.00 79 1014.6
20260831074320 60 329 0.0 0.0 0.00 0.00 0.00 79 1014.6
20260831073829 61 326 0.0 0.0 0.00 0.00 0.00 79 1014.6
20260831073328 61 326 0.0 2.0 0.00 0.00 0.00 79 1014.6
20260831072838 61 322 0.0 2.0 0.00 0.00 0.00 79 1014.7
20260831072318 61 318 0.0 0.0 0.00 0.00 0.00 79 1014.7
20260831071820 61 329 0.0 0.0 0.00 0.00 0.00 79 1014.8
20260831071326 61 329 0.0 2.0 0.00 0.00 0.00 78 1014.8
20260831070828 61 329 0.0 2.0 0.00 0.00 0.00 78 1014.9
20260831070327 61 329 0.0 6.0 0.00 0.00 0.00 77 1014.9
20260831065837 61 333 2.0 6.0 0.00 0.00 0.00 77 1015.0
20260831065316 62 343 0.0 0.0 0.00 0.00 0.00 77 1015.0
20260831064812 62 343 0.0 7.0 0.00 0.00 0.00 76 1015.1
20260831064312 62 6 2.0 7.0 0.00 0.00 0.00 76 1015.1
20260831063821 62 13 1.0 7.0 0.00 0.00 0.00 76 1015.1
20260831063326 62 335 0.0 5.0 0.00 0.00 0.00 75 1015.2
20260831062834 62 305 0.0 5.0 0.00 0.00 0.00 75 1015.1
20260831062313 62 27 2.0 4.0 0.00 0.00 0.00 75 1015.2
20260831061821 62 338 0.0 8.0 0.00 0.00 0.00 75 1015.2
20260831061326 62 6 1.0 8.0 0.00 0.00 0.00 75 1015.3
20260831060836 62 307 0.0 7.0 0.00 0.00 0.00 74 1015.3
20260831060313 62 317 1.0 7.0 0.00 0.00 0.00 74 1015.3
20260831055829 62 328 0.0 0.0 0.00 0.00 0.00 74 1015.4
20260831055328 62 243 0.0 0.0 0.00 0.00 0.00 74 1015.4
20260831054813 63 356 0.0 8.0 0.00 0.00 0.00 74 1015.5
20260831054314 63 325 1.0 8.0 0.00 0.00 0.00 73 1015.6
20260831053816 63 347 2.0 8.0 0.00 0.00 0.00 73 1015.6
20260831053328 63 328 0.0 6.0 0.00 0.00 0.00 73 1015.6
20260831052816 63 345 1.0 8.0 0.00 0.00 0.00 73 1015.7
20260831052315 63 349 1.0 8.0 0.00 0.00 0.00 73 1015.8
20260831051823 63 354 0.0 7.0 0.00 0.00 0.00 73 1015.8
20260831051329 63 336 2.0 7.0 0.00 0.00 0.00 73 1015.9
20260831050311 63 8 0.0 4.0 0.00 0.00 0.00 72 1016.0
20260831045821 63 356 1.0 4.0 0.00 0.00 0.00 72 1016.0
20260831045320 63 308 0.0 4.0 0.00 0.00 0.00 72 1016.0
20260831044829 63 347 0.0 5.0 0.00 0.00 0.00 72 1016.0
20260831044315 63 354 1.0 5.0 0.00 0.00 0.00 72 1016.1
20260831043817 63 348 0.0 6.0 0.00 0.00 0.00 72 1016.1
20260831043315 63 311 1.0 4.0 0.00 0.00 0.00 72 1016.1
20260831042831 63 340 0.0 2.0 0.00 0.00 0.00 72 1016.2
20260831042358 63 345 0.0 1.0 0.00 0.00 0.00 72 1016.2
20260831041839 63 328 0.0 0.0 0.00 0.00 0.00 72 1016.2
20260831041413 63 293 0.0 1.0 0.00 0.00 0.00 71 1016.2
20260831040840 63 293 0.0 4.0 0.00 0.00 0.00 71 1016.2
20260831040338 64 343 0.0 0.0 0.00 0.00 0.00 71 1016.3
20260831035846 64 321 0.0 2.0 0.00 0.00 0.00 70 1016.3
20260831034846 64 299 0.0 4.0 0.00 0.00 0.00 70 1016.3
20260831034333 64 317 0.0 0.0 0.00 0.00 0.00 69 1016.3
20260831033840 64 328 0.0 3.0 0.00 0.00 0.00 69 1016.3
20260831033342 64 295 1.0 8.0 0.00 0.00 0.00 69 1016.2
20260831032850 64 354 1.0 8.0 0.00 0.00 0.00 68 1016.3
20260831032356 64 340 1.0 7.0 0.00 0.00 0.00 68 1016.3
20260831031838 65 338 0.0 1.0 0.00 0.00 0.00 68 1016.3
20260831031344 65 20 0.0 4.0 0.00 0.00 0.00 67 1016.3
20260831030853 65 345 1.0 8.0 0.00 0.00 0.00 67 1016.3
20260831030352 65 357 4.0 8.0 0.00 0.00 0.00 66 1016.3
20260831025813 65 340 1.0 5.0 0.00 0.00 0.00 66 1016.4
20260831025319 65 318 1.0 10.0 0.00 0.00 0.00 65 1016.4
20260831024821 66 1 2.0 10.0 0.00 0.00 0.00 65 1016.4
20260831024328 66 6 0.0 10.0 0.00 0.00 0.00 65 1016.4
20260831023827 66 346 3.0 10.0 0.00 0.00 0.00 64 1016.5
20260831023326 66 34 3.0 8.0 0.00 0.00 0.00 64 1016.5
20260831022816 66 301 1.0 10.0 0.00 0.00 0.00 64 1016.5
20260831022314 66 350 3.0 13.0 0.00 0.00 0.00 63 1016.6
20260831021845 67 320 4.0 13.0 0.00 0.00 0.00 63 1016.5
20260831021352 67 333 2.0 11.0 0.00 0.00 0.00 62 1016.6
20260831020852 67 354 0.0 11.0 0.00 0.00 0.00 62 1016.6
20260831020338 67 355 3.0 10.0 0.00 0.00 0.00 61 1016.6
20260831015844 67 328 1.0 10.0 0.00 0.00 0.00 61 1016.6
20260831015351 67 333 3.0 10.0 0.00 0.00 0.00 60 1016.7
20260831014840 68 316 4.0 9.0 0.00 0.00 0.00 60 1016.7
20260831014338 68 6 2.0 10.0 0.00 0.00 0.00 59 1016.7
20260831013847 68 328 3.0 10.0 0.00 0.00 0.00 59 1016.7
20260831013332 68 3 3.0 11.0 0.00 0.00 0.00 58 1016.7
20260831012814 68 309 3.0 14.0 0.00 0.00 0.00 58 1016.8
20260831012314 68 352 6.0 14.0 0.00 0.00 0.00 57 1016.9
20260831011820 69 5 1.0 11.0 0.00 0.00 0.00 57 1016.9
20260831011319 69 40 0.0 12.0 0.00 0.00 0.00 58 1016.9
20260831010821 68 319 4.0 13.0 0.00 0.00 0.00 58 1017.0
20260831010327 69 331 5.0 13.0 0.00 0.00 0.00 57 1017.1
20260831005829 69 332 1.0 13.0 0.00 0.00 0.00 56 1017.1
20260831005334 69 323 3.0 10.0 0.00 0.00 0.00 56 1017.2
20260831004815 69 345 6.0 11.0 0.00 0.00 0.00 56 1017.2
20260831004321 68 8 5.0 11.0 0.00 0.00 0.00 55 1017.2
20260831003838 69 12 2.0 10.0 0.00 0.00 0.00 56 1017.3
20260831003316 69 14 4.0 10.0 0.00 0.00 0.00 56 1017.3
20260831002832 69 46 0.0 6.0 0.00 0.00 0.00 56 1017.3
20260831002326 69 350 0.0 9.0 0.00 0.00 0.00 57 1017.3
20260831001815 69 318 2.0 11.0 0.00 0.00 0.00 56 1017.4
20260831001320 69 343 4.0 12.0 0.00 0.00 0.00 57 1017.4
20260831000830 69 264 7.0 12.0 0.00 0.00 0.00 57 1017.4
20260831000327 69 353 5.0 11.0 0.00 0.00 0.00 57 1017.4
20260830235829 69 344 0.0 8.0 0.00 0.00 0.00 58 1017.4
20260830235335 69 10 1.0 9.0 0.00 0.00 0.00 57 1017.5
20260830234817 69 281 3.0 9.0 0.00 0.00 0.00 58 1017.6
20260830234315 69 332 0.0 12.0 0.00 0.00 0.00 58 1017.5
20260830233824 69 330 5.0 12.0 0.00 0.00 0.00 58 1017.6
20260830233324 69 349 3.0 10.0 0.00 0.00 0.00 58 1017.6
20260830232827 69 345 3.0 8.0 0.00 0.00 0.00 57 1017.7
20260830232332 69 340 3.0 8.0 0.00 0.00 0.00 58 1017.7
20260830231834 69 311 1.0 8.0 0.00 0.00 0.00 59 1017.8
20260830231339 69 281 3.0 10.0 0.00 0.00 0.00 58 1017.9
20260830230847 68 333 5.0 10.0 0.00 0.00 0.00 58 1017.9
20260830230352 69 358 1.0 9.0 0.00 0.00 0.00 58 1018.0
20260830225853 69 283 2.0 10.0 0.00 0.00 0.00 57 1018.0
20260830225339 69 340 5.0 10.0 0.00 0.00 0.00 57 1018.0
20260830224847 69 309 0.0 12.0 0.00 0.00 0.00 58 1018.1
20260830224345 69 321 4.0 12.0 0.00 0.00 0.00 57 1018.3
20260830223832 69 337 3.0 12.0 0.00 0.00 0.00 57 1018.4
20260830223317 69 353 2.0 10.0 0.00 0.00 0.00 57 1018.5
20260830222819 69 318 1.0 11.0 0.00 0.00 0.00 56 1018.7
20260830222323 70 338 1.0 6.0 0.00 0.00 0.00 56 1018.7
20260830221832 69 306 1.0 7.0 0.00 0.00 0.00 57 1018.7
20260830221337 69 326 0.0 8.0 0.00 0.00 0.00 57 1018.7
20260830220819 69 360 1.0 11.0 0.00 0.00 0.00 57 1018.9
20260830220320 69 126 0.0 11.0 0.00 0.00 0.00 57 1018.9
20260830215822 69 6 0.0 10.0 0.00 0.00 0.00 58 1019.0
20260830215329 68 324 2.0 10.0 0.00 0.00 0.00 57 1019.1
20260830214815 69 6 0.0 9.0 0.00 0.00 0.00 57 1019.1
20260830214314 68 4 1.0 9.0 0.00 0.00 0.00 57 1019.1
20260830213824 68 307 3.0 9.0 0.00 0.00 0.00 57 1019.1
20260830213323 68 287 1.0 10.0 0.00 0.00 0.00 57 1019.3
20260830212825 68 326 7.0 10.0 0.00 0.00 0.00 58 1019.3
20260830212313 67 352 1.0 12.0 0.00 0.00 0.00 58 1019.3
20260830211815 68 351 3.0 12.0 0.00 0.00 0.00 56 1019.4
20260830211315 68 32 0.0 5.0 0.00 0.00 0.00 58 1019.5
20260830210824 67 295 0.0 8.0 0.00 0.00 0.00 59 1019.5
20260830210324 67 347 3.0 8.0 0.00 0.00 0.00 59 1019.6
20260830205834 66 334 0.0 7.0 0.00 0.00 0.00 60 1019.6
20260830205313 66 351 3.0 7.0 0.00 0.00 0.00 59 1019.8
20260830204815 66 338 1.0 6.0 0.00 0.00 0.00 59 1019.7
20260830204314 66 328 2.0 7.0 0.00 0.00 0.00 59 1019.8
20260830203824 66 356 2.0 8.0 0.00 0.00 0.00 59 1019.8
20260830203350 65 158 0.0 8.0 0.00 0.00 0.00 62 1019.9
20260830202832 65 337 5.0 8.0 0.00 0.00 0.00 61 1020.1
20260830202317 65 308 2.0 7.0 0.00 0.00 0.00 62 1020.0
20260830201822 65 293 2.0 7.0 0.00 0.00 0.00 63 1020.1
20260830201321 64 354 0.0 7.0 0.00 0.00 0.00 63 1020.3
20260830200830 65 319 1.0 7.0 0.00 0.00 0.00 61 1020.2
20260830200314 64 358 0.0 9.0 0.00 0.00 0.00 63 1020.3
20260830195817 64 347 3.0 9.0 0.00 0.00 0.00 62 1020.3
20260830195409 65 311 0.0 0.0 0.00 0.00 0.00 62 1020.3
20260830194826 65 328 0.0 1.0 0.00 0.00 0.00 61 1020.3
20260830194332 65 36 0.0 1.0 0.00 0.00 0.00 62 1020.4
20260830193814 64 352 0.0 6.0 0.00 0.00 0.00 63 1020.4
20260830193314 64 300 2.0 7.0 0.00 0.00 0.00 63 1020.5
20260830192823 65 320 3.0 7.0 0.00 0.00 0.00 61 1020.5
20260830192322 65 334 0.0 4.0 0.00 0.00 0.00 62 1020.5
20260830191828 63 131 0.0 7.0 0.00 0.00 0.00 64 1020.6